Regional Weather Roundup
Issued by NWS New Orleans/Baton Rouge, LA

Home | Current Version | Previous Version | Text Only | Print | Product List | Glossary Off
Versions: 1 2 3 4 5 6 7 8 9 10 11 12 13 14 15 16 17 18 19 20 21 22 23 24 25 26 27 28 29 30 31 32 33 34 35 36 37 38 39 40 41 42 43 44 45 46 47 48 49 50

894
ASUS44 KLIX 292210
RWRLIX
NEW ORLEANS REGIONAL WEATHER ROUNDUP
NATIONAL WEATHER SERVICE NEW ORLEANS LA
500 PM CDT TUE JUL 29 2014

NOTE: "FAIR" INDICATES FEW OR NO CLOUDS BELOW 12,000 FEET WITH NO
      SIGNIFICANT WEATHER AND/OR OBSTRUCTIONS TO VISIBILITY.
      SKY/WX - SKY CONDITION AND SIGNIFICANT WEATHER.
      TMP - AIR TEMPERATURE.     DP    - DEWPOINT TEMPERATURE.
      RH  - RELATIVE HUMIDITY.   PRES  - PRESSURE.
      HI  - HEAT INDEX.          WCI   - WIND CHILL INDEX.

*  THESE STATIONS ARE NOT NWS OR FAA STATIONS AND ARE NOT UNDER
   NWS QUALITY CONTROL.

LAZ038-040-048-061>063-065>067-069-292300-
SOUTHEAST LOUISIANA

CITY           SKY/WX    TMP DP  RH WIND       PRES   REMARKS
N.O. AUDUBON     N/A     90  67  46 MISG        N/A
N.O. INTL ARPT PTSUNNY   88  66  48 VRB6      30.02F
N.O. LAKEFRONT MOSUNNY   87  67  51 NW8       30.02F
N.O. DOWNTOWN*   N/A     88  63  42 N3        30.03S
SLIDELL        MOSUNNY   86  62  44 VRB6      30.01S
BATON ROUGE    MOSUNNY   87  63  44 CALM      30.03F
BOOTHVILLE     MOSUNNY   85  66  53 VRB5      30.02S
BELLE CHASSE   PTSUNNY   88  62  41 VRB7      30.01F
BOGALUSA*        N/A     88  63  43 N3        30.03S
GALLIANO*      NOT AVBL
NEW ROADS*     MOCLDY    86  66  51 CALM      30.04F
GONZALES*        N/A     87  67  50 N7        30.02F
HAMMOND*       SUNNY     91  59  33 N6        30.04F
HOUMA*         MOSUNNY   90  64  43 N8        30.01F
PORT FOURCHON* MOCLDY    86  70  58 CALM      30.03S

$$

MSZ070-080>082-292300-
SOUTHERN MISSISSIPPI

CITY           SKY/WX    TMP DP  RH WIND       PRES   REMARKS
MCCOMB         CLOUDY    88  61  40 VRB5      30.04S
GULFPORT       MOSUNNY   93  62  35 N8        29.99S
BILOXI         MOSUNNY   89  63  42 N7        30.00S
PASCAGOULA     MOSUNNY   88  64  44 W6        29.99S
STENNIS ARPT*  MOSUNNY  N/A N/A N/A N7        30.01S

$$

COASTAL OBSERVATIONS
LAKE AND NEARSHORE STATIONS

STATION/POSITION TIME  TEMP    WIND        PRES    WAVE
                       AIR SEA DIR/SP/G            HT/PER
                 (UTC) (F)     (DEG/KT/KT) (MB)    (FT/S)
PASCAGOULA       2200   89     360/  3/  9 1015.2
WAVELAND YACHT   2200   86     330/  6/  8 1015.5
GRAND ISLE       2200   86 86   20/  3/  5 1016.9
SOUTHWEST PASS   2200   89 85   10/  8/ 10 1016.6
NEW CANAL        2200   86 85  300/  2/  5 1017.1
SHELL BEACH      2200   84 82  300/  6/  8 1016.3

OFFSHORE STATIONS

STATION/POSITION TIME  TEMP    WIND        PRES    WAVE
                       AIR SEA DIR/SP/G            HT/PER
                 (UTC) (F)     (DEG/KT/KT) (MB)    (FT/S)
64 S DAUPHIN ISL 2054   82 87  350/ 12/ 14 1015.7

$$




USA.gov is the U.S. government's official web portal to all federal, state and local government web resources and services.